SCP
1 1 2 2 2 2 2 2 2 2 2 2 1 1 1 1 1 1 1 1 1 1 1 1 1 1 1 1 1 1 1 1 1 1 1 1 1 1 1 1 1 0 0
1 1 2 2 2 2 2 2 2 2 2 2 1 1 1 1 1 1 1 1 1 1 1 1 1 1 1 1 1 1 1 1 1 1 1 1 1 1 1 1 1 0 0
2 2 2 3 3 3 3 2 2 2 2 2 2 1 1 1 1 1 1 1 1 1 1 1 1 1 1 1 1 1 1 1 1 1 1 1 1 1 1 1 1 0 0
2 2 3 3 3 3 3 3 2 2 2 2 2 2 1 1 1 1 1 1 1 1 1 1 1 1 2 2 2 1 1 2 2 1 1 1 1 1 1 1 1 1 1
2 2 2 3 3 3 3 3 3 2 2 2 2 2 2 1 1 1 1 1 1 1 1 1 1 1 1 2 2 2 2 2 2 1 1 1 1 1 1 1 1 1 1
3 2 2 3 3 4 4 3 3 2 2 2 2 2 2 2 1 1 1 1 1 1 1 1 1 1 1 1 1 1 2 2 2 1 1 1 1 1 1 1 1 1 1
3 3 3 3 3 4 4 4 3 3 3 2 2 2 2 2 1 1 1 1 1 1 1 1 1 1 1 1 1 1 2 2 2 1 1 0 1 1 1 1 1 1 1
4 3 3 3 3 4 4 4 4 3 3 3 3 2 2 2 1 1 1 1 1 1 1 1 1 1 1 2 2 1 1 1 1 1 1 0 1 1 1 1 1 1 1
4 3 3 3 3 3 3 4 4 4 4 3 3 3 2 2 1 1 1 1 1 1 1 1 1 1 1 2 2 1 1 1 1 1 1 1 1 1 1 1 2 2 1
4 3 3 4 4 3 3 3 3 3 3 4 4 3 2 2 1 1 1 1 1 1 1 1 1 1 1 1 1 1 1 1 1 1 1 1 1 1 1 1 2 2 2
4 3 3 4 4 3 2 3 3 3 3 3 4 3 2 2 1 1 1 1 1 1 1 1 1 1 1 1 1 1 1 1 1 1 1 1 1 1 1 1 2 2 2
3 3 3 3 3 3 2 3 3 3 3 3 3 3 2 2 2 1 1 1 1 1 1 1 1 0 1 1 1 1 1 0 0 0 1 1 1 1 1 1 1 2 2
3 2 2 3 3 2 2 3 3 3 3 3 3 3 3 2 2 2 2 2 2 1 1 1 0 0 0 1 1 1 1 0 0 0 1 1 1 1 1 1 1 1 2
2 2 2 3 3 2 2 3 3 3 3 3 3 3 3 3 2 2 2 2 2 1 1 0 0 0 0 1 1 1 0 0 0 0 0 1 1 1 1 1 1 1 2
2 2 2 3 3 3 3 3 3 3 3 3 3 3 3 3 2 2 2 2 2 1 1 0 0 0 0 1 1 1 0 0 0 0 0 0 1 1 1 1 1 1 2
3 2 2 3 3 3 3 3 3 3 3 3 3 3 3 3 2 2 2 2 2 2 1 0 0 0 0 1 1 1 0 0 0 0 0 0 0 1 1 1 1 1 2
3 3 3 2 2 3 3 3 3 3 3 2 2 2 3 3 2 2 2 2 2 2 1 0 0 0 0 1 1 1 0 0 0 0 0 0 0 0 1 1 1 1 1
4 3 3 3 2 2 2 2 2 2 2 2 2 2 2 2 2 2 2 2 2 2 1 1 0 0 0 0 1 1 0 0 0 0 0 0 0 0 0 1 1 1 1
4 4 3 3 3 2 2 2 2 2 2 2 2 2 2 2 2 2 2 2 2 1 1 1 0 0 0 0 0 1 0 0 0 0 0 0 0 0 0 1 1 1 1
3 3 4 3 3 3 3 2 2 2 2 2 2 2 2 1 2 1 1 2 2 1 1 1 0 0 0 0 0 0 0 0 0 0 0 0 0 0 0 1 1 1 1
2 2 3 3 3 3 3 2 2 2 2 2 2 2 1 1 1 1 1 1 1 1 1 1 0 0 0 0 0 0 0 0 0 0 0 0 0 0 0 1 1 1 1
2 2 2 2 3 3 3 2 2 2 2 2 2 1 1 1 1 1 1 1 1 1 1 1 1 0 0 0 0 1 1 1 1 1 1 1 0 0 0 1 1 1 1
2 2 2 2 2 2 3 2 2 2 2 2 1 1 1 1 1 2 2 2 2 1 1 1 1 1 0 0 0 0 1 1 1 1 1 1 1 0 1 1 1 1 2
2 2 2 2 2 2 2 2 2 2 2 1 1 1 1 0 1 2 2 2 2 2 1 1 1 1 0 0 0 0 0 1 1 1 1 1 1 1 1 1 1 1 1
2 2 2 2 1 1 1 2 2 2 1 1 1 0 0 0 1 2 2 1 2 2 1 1 1 1 0 0 0 0 0 1 1 1 1 1 1 1 0 0 0 1 1
2 2 2 2 1 1 1 2 2 2 1 0 0 0 0 0 1 1 1 1 1 1 1 1 1 1 0 0 0 0 0 1 1 1 1 1 1 1 0 0 0 0 1
Wind_Speed
4 7 12 12 12 12 12 12 12 12 12 12 13 13 13 14 13 13 13 12 12 12 12 12 12 12 12 12 12 12 12 12 12 12 12 12 12 12 12 11 10 6 11
7 8 12 12 12 12 12 12 12 12 12 12 12 13 13 13 13 13 12 12 12 11 11 11 11 11 11 11 11 11 11 11 11 11 11 10 11 11 11 11 10 7 11
9 8 11 12 12 12 12 12 12 12 12 12 12 12 12 12 12 12 12 11 11 10 10 10 10 10 10 10 10 11 10 11 11 11 10 5 6 11 11 11 11 11 10
9 8 9 12 12 12 13 12 12 12 12 12 12 11 11 11 11 11 11 11 10 10 10 9 9 9 9 9 9 10 10 10 10 10 5 4 4 10 11 11 10 10 10
7 6 9 13 12 12 13 13 12 12 12 12 12 11 11 11 11 11 10 10 9 9 9 9 8 8 8 8 9 9 10 10 11 8 4 4 3 8 10 10 9 9 9
6 6 8 12 12 12 12 13 13 12 12 12 12 11 11 11 11 11 10 9 9 9 8 8 8 8 8 8 9 9 9 10 8 4 4 3 2 7 8 8 8 8 8
6 5 8 11 12 12 12 12 12 12 12 12 12 11 11 11 11 10 9 9 9 8 8 8 7 7 7 7 8 8 9 8 5 3 3 2 3 7 7 7 7 8 7
7 6 6 10 11 11 11 11 11 12 12 12 12 11 11 10 10 10 9 9 9 8 8 8 7 7 6 7 7 7 7 7 5 3 2 2 5 6 7 7 7 7 7
6 6 4 6 7 10 11 11 10 11 11 11 11 11 10 10 10 9 9 9 8 8 7 7 6 6 5 6 6 6 6 7 3 2 2 1 4 6 6 6 6 6 6
5 5 5 5 5 5 7 9 9 10 10 11 10 9 9 8 8 8 8 8 8 7 6 6 6 5 5 5 5 5 5 4 2 2 1 2 4 5 5 5 5 5 5
4 4 5 5 5 5 5 7 8 9 9 9 9 9 8 4 4 5 6 7 7 6 6 6 5 4 4 4 4 4 4 1 2 1 1 3 4 4 4 4 4 4 4
5 5 5 6 6 5 4 4 4 5 5 5 5 6 4 3 3 4 5 6 6 5 5 5 5 4 3 1 3 3 1 1 1 1 1 3 4 3 3 3 3 3 3
6 5 5 6 6 5 4 3 2 2 3 4 5 5 4 3 2 2 2 3 3 3 2 2 2 1 1 1 1 1 1 1 0 0 1 3 3 2 2 2 2 1 1
5 5 5 6 5 5 4 4 4 3 3 3 4 5 5 3 3 3 2 2 2 1 1 1 1 1 1 1 1 1 1 1 0 0 1 3 2 1 1 1 1 1 1
6 5 5 6 6 6 5 4 4 4 4 4 4 5 5 4 4 3 2 2 2 2 2 1 2 2 1 1 1 1 1 1 1 0 0 2 2 1 1 0 1 1 1
6 6 5 6 6 6 5 4 4 4 4 4 4 4 5 5 5 4 3 3 3 3 2 2 2 2 1 1 1 1 1 1 1 1 0 1 1 1 1 1 1 2 2
7 6 6 6 6 6 6 5 4 3 4 4 4 5 5 5 5 5 4 4 3 3 3 2 2 2 1 1 1 1 1 1 1 1 1 1 1 1 1 1 1 2 3
7 7 7 6 6 6 5 5 4 3 4 4 4 5 6 5 5 5 4 4 3 3 3 3 2 2 1 1 1 1 1 1 1 2 1 1 1 1 1 1 1 2 3
8 8 8 7 7 7 5 4 4 4 4 4 4 4 5 6 5 4 4 4 4 3 3 3 2 2 2 1 1 1 1 1 1 2 2 2 2 1 1 1 1 2 3
8 8 8 7 7 6 5 3 2 3 3 3 4 4 5 5 6 5 4 4 4 3 3 3 2 2 2 2 1 1 1 1 1 2 2 2 2 2 1 1 1 2 2
6 7 8 8 7 6 5 5 4 3 3 3 3 5 6 5 6 6 4 5 5 4 4 4 3 2 1 1 1 1 2 1 1 2 1 1 1 2 1 1 1 1 1
7 7 7 8 8 7 6 5 3 3 3 3 4 4 5 6 6 5 6 5 5 4 5 4 4 2 1 2 2 1 1 2 2 1 1 2 1 1 1 1 1 1 1
6 7 7 7 7 7 6 4 3 2 1 2 3 4 5 6 6 6 6 6 5 5 5 5 5 5 3 2 2 3 3 3 1 1 1 2 2 1 1 1 1 1 1
7 6 6 7 6 6 6 6 7 6 5 5 4 4 4 5 6 6 6 6 5 5 6 6 5 4 4 3 2 2 2 2 2 1 2 1 2 2 1 1 1 1 1
5 5 5 6 6 5 6 7 7 6 4 3 4 4 4 4 5 6 6 5 5 5 5 5 5 4 4 4 3 2 1 1 1 2 3 2 1 2 2 2 2 1 1
4 4 5 5 5 5 5 6 6 7 6 5 6 6 4 3 3 5 5 5 5 4 4 5 5 6 4 4 3 3 3 3 3 3 3 3 3 2 2 2 2 2 2
Wind_Direction
165 167 155 149 141 135 130 126 122 117 113 111 108 106 104 103 103 104 103 103 104 102 101 98 96 94 95 95 93 92 90 87 84 84 84 83 83 82 81 78 74 68 75
157 161 154 150 144 139 133 129 125 120 118 114 112 110 107 106 103 103 104 103 102 102 101 101 98 96 95 97 94 90 89 88 86 86 81 78 82 82 83 79 75 73 75
147 155 154 149 146 141 136 132 129 126 123 120 117 114 111 109 107 103 103 103 101 101 101 102 100 96 95 96 96 91 89 88 87 86 77 61 76 83 83 81 75 72 73
146 153 157 151 147 144 140 137 134 132 129 125 123 119 116 114 112 109 104 104 104 102 100 100 100 99 98 96 95 93 90 88 88 82 66 56 63 81 82 80 76 72 71
139 149 160 152 148 146 144 141 138 136 133 130 127 124 121 119 116 112 110 106 107 106 103 101 101 101 99 96 93 92 92 92 89 78 60 53 56 79 81 79 76 74 72
138 148 158 153 151 149 147 145 142 140 137 135 132 130 128 123 119 114 111 110 106 108 108 105 102 101 98 96 93 90 93 94 89 75 63 58 60 81 83 81 78 77 75
140 149 156 154 154 152 149 148 146 143 142 139 136 135 132 127 123 120 115 114 110 108 111 111 108 104 98 95 94 94 95 97 91 79 70 68 77 83 84 83 80 78 74
142 144 155 154 155 155 150 150 150 147 145 142 139 138 136 132 129 125 123 117 115 109 109 111 108 102 98 92 89 91 98 97 95 88 83 85 90 88 87 84 82 77 73
136 139 145 152 154 157 156 152 152 152 149 146 143 140 137 135 134 132 128 124 119 116 112 114 113 105 99 95 88 81 91 92 86 97 107 95 95 96 92 87 82 79 73
136 143 146 147 150 153 157 156 154 155 152 148 145 140 137 136 138 137 134 130 126 121 121 116 112 112 105 100 92 85 92 89 83 100 118 112 105 105 96 90 85 78 73
147 153 155 152 152 153 157 157 154 155 154 148 147 143 136 134 139 142 140 135 132 130 128 126 114 107 102 99 95 93 86 83 99 113 136 113 118 113 102 92 85 75 66
175 175 169 162 157 158 161 153 158 157 155 151 150 148 143 137 144 140 144 140 137 135 135 133 121 95 83 76 88 91 78 89 98 138 142 126 132 126 111 98 87 75 60
181 179 176 170 162 160 161 160 160 156 152 152 155 156 147 140 140 137 139 142 136 127 125 130 108 79 88 100 98 100 112 103 120 178 151 139 145 149 134 115 94 75 48
186 186 178 172 168 166 165 169 165 165 162 160 166 162 155 151 152 157 157 150 145 144 141 136 127 110 107 121 124 116 109 123 142 208 168 143 145 167 156 139 94 56 28
193 193 184 176 173 170 164 170 167 174 173 169 166 169 167 162 165 168 167 164 168 163 157 152 142 138 143 146 123 112 116 132 166 252 191 141 153 186 208 232 317 332 342
198 193 188 177 170 167 169 175 174 179 179 174 170 173 173 172 169 168 169 171 173 173 166 162 160 155 162 158 145 144 147 142 154 156 220 175 176 193 248 276 313 331 337
201 192 188 184 173 171 172 182 178 181 182 181 179 176 175 175 174 170 171 176 178 169 159 147 143 140 145 154 161 172 164 166 172 174 184 175 236 227 248 274 309 326 332
199 192 190 185 178 176 174 174 180 184 187 188 184 179 181 177 176 172 174 181 174 163 161 160 155 151 153 168 187 211 199 196 195 189 186 177 175 238 258 265 292 310 322
199 194 190 184 181 178 173 172 179 184 194 188 183 182 184 180 176 178 178 176 168 160 166 170 161 164 165 182 204 206 212 221 223 195 194 185 178 191 219 260 284 307 316
201 195 189 184 182 176 169 164 168 178 198 189 183 188 183 181 179 177 180 174 168 164 172 170 165 170 173 182 201 241 245 237 221 202 205 191 186 191 209 252 278 295 311
195 190 189 185 185 176 172 173 177 186 189 195 189 190 184 183 185 181 181 177 176 178 182 173 164 163 170 151 103 344 319 274 224 215 200 182 197 203 200 219 232 257 297
197 193 189 187 187 188 184 179 177 175 184 197 185 191 195 189 185 188 182 183 183 176 176 178 165 164 185 170 150 145 307 312 276 238 216 197 203 210 211 215 208 237 271
200 197 194 194 191 190 179 164 154 144 145 190 184 192 201 197 192 189 190 187 186 182 185 189 182 179 188 211 188 167 174 214 253 275 233 209 201 208 219 216 221 245 253
206 200 192 192 192 190 179 176 178 186 191 202 189 188 198 200 199 192 187 189 188 191 190 193 194 189 178 198 214 216 196 167 175 244 275 245 213 211 228 252 254 259 274
198 196 193 187 189 187 185 185 189 197 194 192 182 180 196 204 200 195 188 185 189 193 194 193 193 189 189 195 198 193 186 187 186 195 240 261 259 229 225 233 237 247 267
187 190 187 185 190 188 186 188 193 193 186 187 191 184 187 194 197 196 188 181 184 185 196 197 193 189 194 195 202 194 184 183 190 196 217 235 253 249 233 233 230 237 254